Regional Weather Roundup
Issued by NWS

Home | Current Version | Previous Version | Text Only | Print | Product List | Glossary On
Versions: 1 2 3 4 5 6 7 8 9 10 11 12 13 14 15 16 17 18 19 20 21 22 23 24 25 26 27 28 29 30 31 32 33 34 35 36 37 38 39 40 41 42 43 44 45 46 47 48 49 50
000
ASUS43 KFSD 271202
RWRSD

WEATHER ROUNDUP FOR SOUTH DAKOTA
NATIONAL WEATHER SERVICE SIOUX FALLS SD
700 AM CDT FRI MAR 27 2015

NOTE: "FAIR" INDICATES FEW OR NO CLOUDS BELOW 12,000 FEET WITH NO
SIGNIFICANT WEATHER AND/OR OBSTRUCTIONS TO VISIBILITY.


SDZ001>005-009-010-012>017-271300-
NORTHWEST AND NORTH CENTRAL SOUTH DAKOTA

CITY           SKY/WX    TMP DP  RH WIND       PRES   REMARKS
BUFFALO          N/A     32  29  88 S14       29.96F WCI  22
FAITH            N/A     31  27  85 S16       30.08F WCI  20
MOBRIDGE       CLOUDY    26  14  60 S16       30.16F WCI  14
$$

SDZ012>016-024>037-041>051-057-063-072>074-271300-
SOUTHWEST AND SOUTH CENTRAL SOUTH DAKOTA

CITY           SKY/WX    TMP DP  RH WIND       PRES   REMARKS
RAPID CTY ARPT CLOUDY    34  28  79 SE8       30.05F WCI  27
PIERRE         CLOUDY    26  17  68 SE13      30.21S WCI  15
CUSTER         MOCLDY    36  32  85 W13       30.05S
ELLSWORTH AFB  CLOUDY    35  31  83 S7        30.04F WCI  30
PHILIP         CLOUDY    34  27  75 SE7       30.13F WCI  28
PINE RIDGE     CLOUDY    37  32  82 S14       30.09F
SPEARFISH      MOCLDY    41  36  81 W8        30.04S
WINNER         CLOUDY    29  18  63 SE13      30.21F WCI  19
$$

SDZ004>011-016>023-039-040-271300-
NORTHEAST SOUTH DAKOTA

CITY           SKY/WX    TMP DP  RH WIND       PRES   REMARKS
ABERDEEN       MOCLDY    18  14  84 S3        30.26F
WATERTOWN      CLEAR     11   7  84 W5        30.24R WCI   3
SISSETON         N/A     13  10  88 CALM      30.26F
$$

SDZ017-020-022-023-036>040-048>070-271300-
SOUTHEAST SOUTH DAKOTA

CITY           SKY/WX    TMP DP  RH WIND       PRES   REMARKS
SIOUX FALLS    PTCLDY    14   9  80 W3        30.27R
HURON          PTCLDY    14  10  84 SW3       30.28F
MITCHELL       PTCLDY    15  10  80 CALM      30.30F
YANKTON        CLEAR     16  10  79 NW7       30.31S WCI   6
$$

ABBREVIATIONS USED IN REMARKS
   TC - TEMPERATURE IN CELSIUS
  WCI - WIND CHILL INDEX
   HX - HEAT INDEX
  VSB - VISIBILITY



USA.gov is the U.S. government's official web portal to all federal, state and local government web resources and services.